[[{"header":{"parameterUnit":"m.s-1","parameterCategory":1,"la1":30.2991,"la2":30.254,"lo1":-89.0895,"lo2":-89.0444,"dy":0.0017,"dx":0.0017,"nx":28,"ny":28,"refTime":"2025-11-21T03:00:00:Z","depth":0,"parameterNumber":2,"parameterNumberName":"U-component_of_WINDS"},"data":[0,0,0,0,0,0,0,0,0,0,0,0,0,0,0,0,0,0,0,0,0,0,0,0,0,0,0,0,0,0,0,0,0,0,0,0,0,0,0,0,0,0,0,0,0,0,0,0,0,0,0,0,0,0,0,0,0,0,-0.3262,-0.3262,0,-0.3224,-0.3224,-0.3223,-0.3223,-0.3223,-0.3224,-0.3224,-0.3185,-0.3184,-0.3182,0,0,0,0,0,0,0,0,0,0,0,0,0,-0.3333,-0.3332,-0.3262,-0.3262,-0.3261,-0.3224,-0.3224,-0.3223,-0.3223,-0.3223,-0.3224,-0.3224,-0.3186,-0.3184,-0.3182,0,0,0,0,0,0,0,0,0,0,0,0,0,-0.33,-0.3331,-0.3262,-0.3256,-0.3255,-0.3224,-0.3224,-0.3223,-0.3222,-0.3223,-0.3224,-0.3225,-0.3186,-0.3184,-0.3182,-0.3154,0,0,-0.3175,-0.3174,0,0,0,0,0,0,0,0,-0.3301,-0.3297,-0.3258,-0.3257,-0.3256,-0.3229,-0.3235,-0.32,-0.3222,-0.3235,-0.3224,-0.3225,-0.3199,-0.3196,-0.3187,-0.3152,-0.3151,-0.3175,-0.3174,-0.3173,-0.3172,0,0,0,0,0,0,0,-0.3304,-0.3299,-0.3247,-0.3257,-0.3256,-0.3255,-0.3251,-0.3228,-0.3214,-0.3234,-0.3234,-0.3229,-0.3199,-0.3189,-0.3186,-0.315,-0.3175,-0.3173,-0.3172,-0.3171,-0.3089,-0.3088,0,0,0,0,0,0,-0.3307,-0.3301,-0.3248,-0.3246,-0.3281,-0.3254,-0.3249,-0.3237,-0.3214,-0.3211,-0.3229,-0.3229,-0.3193,-0.3189,-0.3185,-0.315,-0.3173,-0.3171,-0.3169,-0.309,-0.3089,-0.3088,0,0,0,0,0,0,-0.3309,-0.3303,-0.325,-0.3273,-0.3266,-0.3252,-0.3238,-0.3236,-0.3226,-0.321,-0.3207,-0.3222,-0.3193,-0.3188,-0.3162,-0.3148,-0.317,-0.3168,-0.3091,-0.309,-0.3088,-0.308,0,0,0,0,0,0,-0.3311,-0.3303,-0.3293,-0.3273,-0.3265,-0.3227,-0.3237,-0.3234,-0.3223,-0.3223,-0.3203,-0.32,-0.3193,-0.3165,-0.3159,-0.3146,-0.3166,-0.3092,-0.309,-0.3089,-0.3081,-0.3078,-0.3076,0,0,0,0,0,-0.3313,-0.3292,-0.3292,-0.3286,-0.3252,-0.3226,-0.3222,-0.3215,-0.3222,-0.321,-0.32,-0.3201,-0.3151,-0.3162,-0.3156,-0.3142,-0.3093,-0.3091,-0.3089,-0.3082,-0.3079,-0.3076,0,0,0,0,0,0,-0.3311,-0.3289,-0.3289,-0.3261,-0.3245,-0.3226,-0.3212,-0.3212,-0.3194,-0.3195,-0.3187,-0.3182,-0.3155,-0.3146,-0.3159,-0.3113,-0.3123,-0.3119,-0.312,-0.3116,-0.3114,-0.3116,-0.3164,0,0,0,0,0,-0.3307,-0.3288,-0.3271,-0.3247,-0.324,-0.3227,-0.3216,-0.3212,-0.3195,-0.3189,-0.3176,-0.316,-0.3141,-0.3128,-0.311,-0.308,-0.3075,-0.3067,-0.3065,-0.3062,-0.3059,-0.3042,-0.3037,-0.3082,-0.3082,-0.3082,0,0,-0.3299,-0.3285,-0.3274,-0.3247,-0.3234,-0.3214,-0.3222,-0.3201,-0.3186,-0.3186,-0.3159,-0.315,-0.3131,-0.3103,-0.3089,-0.3094,-0.3046,-0.306,-0.3059,-0.3056,-0.3039,-0.3035,-0.3031,-0.308,-0.3081,-0.3081,0,0,-0.3274,-0.3262,-0.324,-0.3228,-0.3208,-0.32,-0.3195,-0.3176,-0.3169,-0.3143,-0.3141,-0.3124,-0.3091,-0.3077,-0.3066,-0.3035,-0.3035,-0.3029,-0.3015,-0.2998,-0.2994,-0.2991,-0.2979,-0.2975,-0.3027,-0.3027,-0.3026,0,-0.3266,-0.3237,-0.323,-0.3208,-0.3196,-0.3194,-0.3172,-0.316,-0.3136,-0.3127,-0.3133,-0.309,-0.3078,-0.3045,-0.3038,-0.3029,-0.3022,-0.3031,-0.2996,-0.2992,-0.2989,-0.2977,-0.2973,-0.3026,-0.3026,-0.3026,-0.3026,0,-0.3227,-0.3207,-0.3192,-0.3168,-0.3154,-0.3132,-0.3121,-0.3108,-0.3105,-0.3096,-0.3068,-0.3054,-0.3031,-0.3024,-0.3021,-0.299,-0.2993,-0.2997,-0.3007,-0.2984,-0.2973,-0.2968,-0.3025,-0.3025,-0.3025,-0.3026,0,0,-0.3199,-0.3171,-0.3166,-0.3154,-0.3132,-0.3116,-0.3094,-0.3072,-0.306,-0.3044,-0.3024,-0.2996,-0.2999,-0.2987,-0.2982,-0.2967,-0.2942,-0.2973,-0.2972,-0.2966,-0.2906,-0.2902,-0.2897,-0.2942,-0.2941,-0.294,-0.2907,0,-0.3171,-0.3131,-0.3124,-0.3089,-0.307,-0.3068,-0.3048,-0.3033,-0.3024,-0.3005,-0.2996,-0.2975,-0.2982,-0.2974,-0.2959,-0.2948,-0.2929,-0.2951,-0.2923,-0.2922,-0.2926,-0.2891,-0.2887,-0.2856,-0.2902,-0.2902,-0.2901,0,-0.3132,-0.3113,-0.3077,-0.3057,-0.3048,-0.3031,-0.3009,-0.2992,-0.2974,-0.2969,-0.2954,-0.2951,-0.2927,-0.2939,-0.2906,-0.2921,-0.2909,-0.2902,-0.29,-0.2896,-0.2909,-0.2884,-0.2846,-0.284,-0.2894,-0.2895,-0.2895,0,-0.3113,-0.308,-0.3053,-0.3043,-0.3019,-0.3007,-0.2997,-0.2979,-0.2966,-0.2947,-0.2938,-0.2918,-0.2906,-0.289,-0.2881,-0.289,-0.2848,-0.2859,-0.2842,-0.2842,-0.2832,-0.2832,-0.2789,-0.2827,-0.2827,-0.2827,-0.2827,0,-0.3081,-0.3059,-0.3044,-0.3027,-0.3001,-0.2993,-0.2968,-0.2958,-0.2942,-0.2923,-0.2921,-0.2903,-0.2893,-0.2874,-0.2867,-0.2839,-0.2835,-0.2829,-0.2827,-0.2828,-0.2829,-0.2819,-0.2821,-0.2826,-0.2826,-0.2826,-0.2826,0,-0.3056,-0.3045,-0.3016,-0.2995,-0.299,-0.2971,-0.2954,-0.2937,-0.2928,-0.2904,-0.2898,-0.2884,-0.2861,-0.285,-0.2822,-0.2818,-0.2786,-0.2787,-0.2792,-0.2791,-0.2774,-0.2775,-0.2722,-0.2714,-0.2758,-0.2758,-0.2757,0,-0.3036,-0.3018,-0.2995,-0.2982,-0.2971,-0.295,-0.2936,-0.2928,-0.2913,-0.2891,-0.2877,-0.2854,-0.2834,-0.2798,-0.2785,-0.2763,-0.2762,-0.2745,-0.2759,-0.276,-0.276,-0.276,-0.2758,-0.2742,-0.2741,-0.2741,-0.2741,0,-0.3,-0.2996,-0.2976,-0.2953,-0.2937,-0.2919,-0.2902,-0.2891,-0.288,-0.2863,-0.284,-0.2825,-0.2795,-0.2772,-0.2749,-0.2738,-0.2737,-0.2737,-0.2731,-0.2732,-0.2735,-0.2731,-0.2783,-0.2738,-0.2738,-0.2738,-0.2738,-0.2739,-0.2976,-0.2959,-0.294,-0.2918,-0.2904,-0.2887,-0.287,-0.2859,-0.2839,-0.2814,-0.281,-0.2784,-0.2765,-0.2734,-0.2723,-0.2702,-0.2706,-0.2699,-0.2696,-0.2694,-0.2692,-0.2739,-0.2698,-0.2698,-0.2698,-0.2698,-0.2698,0,-0.2939,-0.2926,-0.2906,-0.2881,-0.2863,-0.2864,-0.2844,-0.2829,-0.2806,-0.2789,-0.277,-0.2742,-0.2719,-0.2704,-0.2681,-0.2667,-0.2666,-0.2661,-0.2661,-0.2658,-0.2691,-0.2697,-0.2662,-0.2662,-0.2662,-0.2662,-0.2662,-0.2662,-0.2918,-0.2889,-0.2882,-0.2846,-0.2834,-0.2808,-0.2797,-0.2781,-0.2767,-0.2736,-0.2716,-0.2707,-0.269,-0.2665,-0.2644,-0.264,-0.2631,-0.2626,-0.2622,-0.2652,-0.2656,-0.266,-0.2665,-0.2624,-0.2624,-0.2591,-0.259,-0.259]},{"header":{"parameterUnit":"m.s-1","parameterCategory":1,"la1":30.2991,"la2":30.254,"lo1":-89.0895,"lo2":-89.0444,"dy":0.0017,"dx":0.0017,"nx":28,"ny":28,"refTime":"2025-11-21T03:00:00:Z","depth":0,"parameterNumber":3,"parameterNumberName":"V-component_of_WINDS"},"data":[0,0,0,0,0,0,0,0,0,0,0,0,0,0,0,0,0,0,0,0,0,0,0,0,0,0,0,0,0,0,0,0,0,0,0,0,0,0,0,0,0,0,0,0,0,0,0,0,0,0,0,0,0,0,0,0,0,0,4.3644,4.3645,0,4.3715,4.3715,4.3716,4.3707,4.3706,4.3704,4.3703,4.3771,4.3774,4.3777,0,0,0,0,0,0,0,0,0,0,0,0,0,4.3499,4.3502,4.3644,4.3645,4.3646,4.3714,4.3715,4.3716,4.3707,4.3706,4.3704,4.3703,4.377,4.3773,4.3777,0,0,0,0,0,0,0,0,0,0,0,0,0,4.3565,4.3503,4.3644,4.3649,4.3651,4.3714,4.3715,4.3717,4.3707,4.3706,4.3704,4.3702,4.3769,4.3773,4.3777,4.3838,0,0,4.379,4.3792,0,0,0,0,0,0,0,0,4.3561,4.357,4.3648,4.3649,4.3651,4.37,4.3689,4.3757,4.3708,4.3686,4.3703,4.3701,4.3748,4.3754,4.3771,4.3841,4.3844,4.3791,4.3793,4.3795,4.3796,0,0,0,0,0,0,0,4.3557,4.3567,4.3672,4.3649,4.3651,4.3648,4.3655,4.3702,4.3726,4.3687,4.3687,4.3696,4.3749,4.3767,4.3773,4.3845,4.3791,4.3794,4.3797,4.3799,4.3973,4.3975,0,0,0,0,0,0,4.3551,4.3563,4.3669,4.3674,4.3601,4.3652,4.366,4.3686,4.3725,4.373,4.3697,4.3695,4.3761,4.3768,4.3775,4.3852,4.3795,4.3799,4.3802,4.3971,4.3974,4.3976,0,0,0,0,0,0,4.3548,4.3561,4.3667,4.3619,4.3632,4.3656,4.3685,4.3688,4.3707,4.3733,4.3736,4.3712,4.3759,4.3769,4.3824,4.3854,4.3801,4.3805,4.3969,4.3972,4.3975,4.4005,0,0,0,0,0,0,4.3544,4.356,4.3583,4.3619,4.3635,4.3715,4.3687,4.3691,4.3715,4.3712,4.3747,4.3751,4.3759,4.3818,4.3828,4.3859,4.3808,4.3966,4.397,4.3974,4.4002,4.4009,4.4015,0,0,0,0,0,4.3539,4.3587,4.3585,4.3597,4.3665,4.3717,4.3725,4.3735,4.3717,4.3741,4.3758,4.375,4.3849,4.3823,4.3835,4.3868,4.3964,4.3969,4.3973,4.3999,4.4007,4.4015,0,0,0,0,0,0,4.3551,4.3592,4.3589,4.3651,4.3681,4.3715,4.3746,4.3743,4.3777,4.3774,4.3782,4.379,4.3847,4.3862,4.3833,4.3931,4.3904,4.3911,4.3919,4.3928,4.3935,4.393,4.3812,0,0,0,0,0,4.3562,4.3601,4.3634,4.3685,4.3701,4.3721,4.3743,4.3749,4.3779,4.3791,4.3812,4.3841,4.388,4.3904,4.394,4.4003,4.4012,4.4032,4.4039,4.4044,4.4051,4.4089,4.4099,4.3991,4.3991,4.3991,0,0,4.3582,4.3609,4.3633,4.3688,4.3712,4.3754,4.3731,4.3774,4.3805,4.3797,4.3852,4.3869,4.3901,4.3962,4.399,4.3977,4.4083,4.405,4.4054,4.4058,4.4095,4.4105,4.4115,4.3994,4.3994,4.3993,0,0,4.3642,4.3666,4.3713,4.3738,4.3776,4.379,4.3801,4.3837,4.3849,4.3904,4.39,4.3936,4.4,4.4025,4.4046,4.412,4.4115,4.4131,4.4167,4.4204,4.4213,4.4221,4.425,4.426,4.4137,4.4137,4.4137,0,4.3663,4.3726,4.3737,4.3783,4.3808,4.3805,4.3854,4.3877,4.3924,4.3941,4.3926,4.401,4.4032,4.41,4.4119,4.4135,4.4149,4.4128,4.4211,4.4219,4.4226,4.4254,4.4265,4.4139,4.4139,4.4139,4.4139,0,4.3752,4.3796,4.3829,4.3878,4.3907,4.3953,4.3971,4.3999,4.4002,4.4017,4.4075,4.4102,4.4145,4.4161,4.4163,4.4231,4.4222,4.4209,4.4183,4.4239,4.4265,4.4276,4.4142,4.4142,4.4141,4.414,0,0,4.382,4.3877,4.389,4.3914,4.3956,4.399,4.4037,4.4082,4.4107,4.4139,4.4181,4.4237,4.4227,4.4251,4.4256,4.4288,4.4349,4.4271,4.4272,4.4288,4.4429,4.4441,4.4453,4.4345,4.4347,4.4349,4.4427,0,4.3886,4.3973,4.3985,4.4061,4.4103,4.4103,4.4144,4.4175,4.4191,4.4229,4.4246,4.4287,4.4268,4.4284,4.4316,4.4335,4.4378,4.4329,4.4385,4.4386,4.4379,4.4466,4.4478,4.4551,4.4438,4.4439,4.444,0,4.3975,4.4014,4.4095,4.4136,4.4154,4.4192,4.4236,4.4272,4.4307,4.4317,4.4346,4.4348,4.4398,4.4368,4.4438,4.4405,4.4428,4.4441,4.4444,4.4451,4.4418,4.4478,4.4574,4.4586,4.4456,4.4455,4.4454,0,4.4021,4.4093,4.4153,4.4172,4.422,4.4248,4.4269,4.4303,4.433,4.4368,4.4386,4.4428,4.4452,4.4485,4.4498,4.4475,4.4568,4.4539,4.4579,4.4579,4.46,4.4599,4.4703,4.4611,4.461,4.461,4.461,0,4.4095,4.4146,4.4175,4.4211,4.4268,4.4282,4.4338,4.4358,4.4389,4.4429,4.4429,4.4467,4.4482,4.4522,4.4533,4.4591,4.46,4.461,4.4613,4.4612,4.4611,4.4629,4.4625,4.4613,4.4613,4.4612,4.4611,0,4.4157,4.4178,4.4243,4.4285,4.4297,4.4337,4.4373,4.4408,4.4425,4.4477,4.4489,4.4515,4.4563,4.458,4.4636,4.4644,4.4713,4.4709,4.4702,4.4703,4.4743,4.474,4.4864,4.4883,4.4775,4.4776,4.4777,0,4.4204,4.4244,4.4291,4.432,4.4343,4.4388,4.4417,4.4433,4.4463,4.4509,4.4539,4.4588,4.4627,4.4704,4.4727,4.4772,4.4771,4.4812,4.4778,4.4777,4.4776,4.4775,4.478,4.4819,4.482,4.4821,4.4821,0,4.4287,4.4296,4.434,4.4388,4.4424,4.4461,4.4498,4.4521,4.4542,4.4576,4.4627,4.4658,4.4719,4.4767,4.4814,4.4834,4.4833,4.4832,4.4844,4.4845,4.484,4.4847,4.4722,4.4829,4.4829,4.4828,4.4828,4.4827,4.4345,4.4381,4.4422,4.4471,4.4501,4.4536,4.4574,4.4597,4.464,4.4692,4.4698,4.4753,4.479,4.4853,4.4876,4.492,4.4909,4.4925,4.493,4.4935,4.494,4.4832,4.4928,4.4927,4.4927,4.4927,4.4927,0,4.443,4.4457,4.4502,4.4556,4.4595,4.4592,4.4633,4.4666,4.4715,4.4751,4.4791,4.4851,4.4899,4.4928,4.4976,4.5006,4.5006,4.5018,4.5017,4.5023,4.4945,4.4931,4.5017,4.5017,4.5017,4.5017,4.5017,4.5017,4.448,4.4543,4.4558,4.4637,4.4663,4.4719,4.4744,4.4777,4.4806,4.4874,4.4915,4.4934,4.4968,4.5019,4.5063,4.5071,4.509,4.5103,4.511,4.5037,4.5028,4.5019,4.5006,4.5106,4.5107,4.5184,4.5185,4.5186]}]]